Location: Abraham Lincoln Continuation High School
(33.9711°N, 117.3662°W)
Time: 04:52:36
(UTC+00:00)

ATLAS 2AS CENTAUR R/B - Pass Details

Date: 21 September 2020
Orbit: 939 x 1273 km, 63.7° (Epoch: 19 October)

Event Time Altitude Azimuth Distance (km) Brightness Sun altitude
Rises 02:37:22 0° 173° (S) 4,125 5.6 -11.0°
Reaches altitude 10° 02:40:34 10° 162° (SSE) 3,199 4.9 -11.7°
Maximum altitude 02:46:51 27° 108° (ESE) 2,206 3.8 -13.0°
Drops below altitude 10° 02:53:14 10° 54° (NE) 3,266 4.8 -14.3°
Sets 02:56:30 0° 43° (NE) 4,227 5.5 -14.9°
